Lid_Strength_Index
8 8 8 8 8 8 8 8 10 8 8 7 6 6 5 5 5 5 5 5 4 4 3 3 2 2 2 1 1 1 1 1 1 0 0 0 0 0 -0 -1 0 1 1 -0
9 7 8 9 8 7 8 7 7 7 8 5 5 5 5 5 5 6 5 5 5 4 3 3 3 2 2 1 1 1 1 1 1 0 0 0 0 -0 -0 0 1 1 1 -0
10 8 8 10 9 9 8 7 8 10 7 6 6 6 6 6 5 6 5 5 5 4 3 3 2 2 2 1 1 1 1 1 1 1 1 0 0 -0 -0 0 -0 -0 -0 -0
10 9 13 9 7 7 8 7 7 8 7 6 6 5 5 4 5 5 5 5 4 3 3 2 1 1 2 1 1 1 1 1 1 1 1 1 0 0 -0 -1 -0 -0 -0 -0
11 11 9 9 9 9 10 10 7 8 7 6 5 6 6 4 4 5 4 3 3 2 2 2 2 2 2 1 2 2 2 2 3 1 1 1 1 0 -1 -0 -0 -0 -0 -0
10 13 14 11 8 5 6 12 7 7 7 7 6 10 9 5 4 4 3 2 3 3 2 2 2 2 2 2 2 3 3 2 1 1 2 3 2 1 -1 -0 -0 -0 -0 -0
11 12 10 8 6 5 13 13 7 7 7 7 8 7 6 4 4 3 3 3 3 2 2 2 2 2 2 2 3 2 2 1 1 1 1 1 0 -0 -0 0 0 0 0 -0
10 12 14 7 6 10 8 6 6 6 6 7 6 5 5 5 4 4 3 3 3 3 3 2 1 1 2 2 1 1 2 2 2 1 2 1 0 -0 -0 0 0 0 0 0
10 11 7 6 7 5 5 7 6 6 5 5 5 5 4 5 3 3 3 3 2 2 2 1 1 1 2 2 1 1 1 0 0 0 -0 -0 0 0 1 -0 1 1 1 2
9 8 8 6 5 5 5 5 5 5 4 5 5 5 5 4 3 3 3 3 3 2 2 3 2 2 1 1 0 0 1 1 0 0 0 -0 -0 0 1 1 1 2 3 3
9 8 6 6 6 5 5 5 5 5 6 5 5 5 5 4 3 3 3 2 2 3 3 2 2 3 1 1 1 1 1 2 1 1 0 1 1 0 1 0 3 2 2 2
10 6 6 6 5 4 4 5 5 5 5 5 5 4 4 4 3 3 3 3 3 2 2 2 2 1 1 1 0 1 1 1 2 2 1 1 1 1 7 7 7 7 7 5
6 4 4 4 4 3 4 5 4 4 4 4 3 3 3 3 3 3 2 2 2 2 1 1 1 1 0 0 0 0 1 1 1 1 0 2 1 1 2 4 6 6 6 6
3 4 5 4 5 3 3 3 4 4 3 3 2 2 2 2 2 2 2 2 1 1 1 1 1 1 0 -0 -0 0 0 4 0 1 1 1 0 0 -0 1 2 1 5 4
4 3 3 3 3 3 2 3 3 3 3 3 2 2 2 3 3 2 1 1 1 1 1 1 1 1 -0 0 0 0 0 1 -0 2 1 2 -0 -1 -0 0 0 1 2 4
4 3 3 4 4 3 3 3 3 3 3 3 3 2 2 2 2 2 1 1 2 2 1 1 1 0 -1 -0 -0 -0 0 4 3 -0 0 0 1 1 2 0 0 2 1 1
5 5 4 4 4 3 3 3 3 3 3 3 3 2 2 2 2 2 2 1 1 1 1 1 1 -0 -0 -0 -0 0 0 0 4 -0 1 1 1 2 1 1 1 1 -0 1
3 3 2 3 3 3 3 4 3 3 3 3 3 3 3 3 3 2 2 1 1 1 1 0 -0 -0 -0 -0 -0 -0 -1 -0 -0 0 1 1 2 1 1 1 1 1 0 -0
2 3 2 2 2 3 3 3 3 3 2 2 2 2 2 2 2 2 1 2 2 2 1 0 3 1 -0 1 1 -0 -0 0 0 1 1 2 1 1 1 -0 1 1 1 1
2 2 2 2 2 3 3 2 2 2 2 2 2 3 3 3 2 2 1 2 2 1 -0 -0 -0 -0 -0 1 4 0 0 -0 0 -0 1 0 -0 0 1 4 3 3 3 3
2 2 3 3 3 2 2 2 2 3 3 2 3 3 2 2 2 2 2 3 1 1 1 3 2 2 2 3 2 1 2 2 1 1 1 1 1 2 3 3 4 4 4 5
2 2 2 2 3 3 2 2 2 2 2 2 2 2 2 2 1 1 1 1 1 8 3 2 3 9 5 8 2 2 2 2 2 2 2 2 2 3 3 4 4 4 3 4
2 2 2 3 2 3 2 2 2 2 2 2 1 2 2 2 1 2 3 2 2 5 3 4 10 12 12 3 3 3 3 2 2 3 2 2 3 3 3 4 4 4 4 4
2 2 2 2 2 2 3 2 2 2 1 1 1 0 1 1 1 2 2 7 8 6 4 5 7 11 9 4 4 4 4 4 3 3 3 7 3 3 3 3 3 3 4 5
2 2 2 2 2 2 2 2 2 2 1 1 1 0 0 0 1 1 2 3 9 5 4 12 10 10 4 4 4 4 5 5 4 4 4 4 4 4 3 3 4 4 4 4
2 2 2 1 2 2 1 1 2 1 1 1 1 1 1 1 1 1 1 3 2 5 3 3 3 3 3 3 3 4 4 4 4 5 5 4 4 4 4 4 4 4 4 4
1 4 2 2 1 1 1 1 1 2 1 1 1 1 1 2 2 2 4 2 2 3 2 2 3 4 4 4 4 4 4 5 8 4 4 4 4 4 5 4 5 4 5 5